Location: Koussan�
(15.2012°N, 12.5548°W)
Time: 18:01:47
(UTC+00:00)

Atlas Centaur 2 - Pass Details

Date: 20 October 2020
Orbit: 459 x 1309 km, 30.4° (Epoch: 29 November)

Event Time Altitude Azimuth Distance (km) Brightness Sun altitude
Rises 19:28:06 0° 244° (WSW) 4,252 7.3 -15.5°
Reaches altitude 10° 19:31:03 10° 246° (WSW) 3,311 6.4 -16.2°
Maximum altitude 19:39:38 80° 332° (NNW) 1,299 3.1 -18.2°
Enters shadow 19:44:47 25° 56° (ENE) 2,220 3.8 -19.5°
